Location: Béaulencourt
(50.0796°N, 2.8795°E)
Time: 00:09:50
(UTC+00:00)

Cosmos 2084 Rocket - Pass Details

Date: 20 January 2026
Orbit: 542 x 571 km, 62.8° (Epoch: 9 February)

Event Time Altitude Azimuth Distance (km) Brightness Sun altitude
Exits shadow 05:45:43 37° 280° (W) 887 3.8 -17.4°
Maximum altitude 05:46:52 49° 233° (SW) 739 3.6 -17.3°
Drops below altitude 10° 05:50:57 10° 158° (SSE) 1,869 6.5 -16.6°
Sets 05:53:13 0° 153° (SSE) 2,763 7.5 -16.3°
